LEMD Weather Reports


Display with metric or nautical units.
time (UTC)temp
F
wind
direction
speed
MPH
gust
MPH
rain 1hr
in
rain 24hr
in
rain mn
in
humidity
%
barometer
mb
20260507084504 55 0 2.0 0.0 0.00 0.00 0.00 71 1012.0
20260507083004 54 0 2.0 0.0 0.00 0.00 0.00 71 1012.0
20260507081504 54 0 2.0 0.0 0.00 0.00 0.00 71 1012.0
20260507074504 55 90 3.0 0.0 0.00 0.00 0.00 66 1012.0
20260507073004 54 0 2.0 0.0 0.00 0.00 0.00 71 1011.0
20260507071503 54 0 2.0 0.0 0.00 0.00 0.00 71 1011.0
20260507063004 52 330 3.0 0.0 0.00 0.00 0.00 76 1011.0
20260507061504 52 330 3.0 0.0 0.00 0.00 0.00 76 1011.0
20260507060004 50 340 3.0 0.0 0.00 0.00 0.00 81 1011.0
20260507054504 50 340 3.0 0.0 0.00 0.00 0.00 81 1011.0
20260507053005 50 0 2.0 0.0 0.00 0.00 0.00 76 1011.0
20260507051504 50 0 2.0 0.0 0.00 0.00 0.00 76 1011.0
20260507044504 50 340 7.0 0.0 0.00 0.00 0.00 76 1011.0
20260507034504 50 350 7.0 0.0 0.00 0.00 0.00 76 1011.0
20260507033004 52 350 6.0 0.0 0.00 0.00 0.00 66 1011.0
20260507030004 52 360 5.0 0.0 0.00 0.00 0.00 66 1011.0
20260507024503 52 360 5.0 0.0 0.00 0.00 0.00 66 1011.0
20260507023004 52 340 6.0 0.0 0.00 0.00 0.00 66 1011.0
20260507021504 52 340 6.0 0.0 0.00 0.00 0.00 66 1011.0
20260507020005 50 0 2.0 0.0 0.00 0.00 0.00 66 1011.0
20260507011503 50 0 1.0 0.0 0.00 0.00 0.00 71 1011.0
20260507010004 50 20 1.0 0.0 0.00 0.00 0.00 71 1011.0
20260507004503 50 20 1.0 0.0 0.00 0.00 0.00 71 1011.0
20260507003005 52 350 5.0 0.0 0.00 0.00 0.00 66 1011.0
20260507001504 52 350 5.0 0.0 0.00 0.00 0.00 66 1011.0
20260506234504 52 350 3.0 0.0 0.00 0.00 0.00 62 1011.0
20260506233005 52 340 3.0 0.0 0.00 0.00 0.00 62 1010.0
20260506230004 54 350 5.0 0.0 0.00 0.00 0.00 54 1010.0
20260506224503 54 350 5.0 0.0 0.00 0.00 0.00 54 1010.0
20260506221504 55 350 2.0 0.0 0.00 0.00 0.00 43 1010.0
20260506213004 55 50 3.0 0.0 0.00 0.00 0.00 40 1010.0
20260506211504 55 50 3.0 0.0 0.00 0.00 0.00 40 1010.0
20260506210005 57 40 2.0 0.0 0.00 0.00 0.00 44 1010.0
20260506204504 57 40 2.0 0.0 0.00 0.00 0.00 44 1010.0
20260506201504 61 0 2.0 0.0 0.00 0.00 0.00 33 1010.0
20260506194504 64 190 3.0 0.0 0.00 0.00 0.00 27 1010.0
20260506191504 66 0 1.0 0.0 0.00 0.00 0.00 24 1010.0
20260506184503 66 0 2.0 0.0 0.00 0.00 0.00 24 1010.0
20260506183005 68 0 3.0 0.0 0.00 0.00 0.00 26 1010.0
20260506180005 68 360 3.0 0.0 0.00 0.00 0.00 26 1010.0
20260506173004 68 250 3.0 0.0 0.00 0.00 0.00 22 1010.0
20260506171504 68 250 3.0 0.0 0.00 0.00 0.00 22 1010.0
20260506170004 68 200 3.0 0.0 0.00 0.00 0.00 26 1010.0
20260506163005 68 190 5.0 0.0 0.00 0.00 0.00 26 1011.0
20260506161504 68 190 5.0 0.0 0.00 0.00 0.00 26 1011.0
20260506154504 68 250 2.0 0.0 0.00 0.00 0.00 30 1011.0
20260506153004 66 230 5.0 0.0 0.00 0.00 0.00 29 1011.0
20260506151504 66 230 5.0 0.0 0.00 0.00 0.00 29 1011.0
20260506144504 66 60 3.0 0.0 0.00 0.00 0.00 34 1012.0
20260506143005 66 200 6.0 0.0 0.00 0.00 0.00 29 1012.0
20260506141504 66 200 6.0 0.0 0.00 0.00 0.00 29 1012.0
20260506140004 66 210 5.0 0.0 0.00 0.00 0.00 32 1012.0
20260506134504 66 210 5.0 0.0 0.00 0.00 0.00 32 1012.0
20260506133004 64 120 2.0 0.0 0.00 0.00 0.00 36 1013.0
20260506131504 64 120 2.0 0.0 0.00 0.00 0.00 36 1013.0
20260506130005 64 180 5.0 0.0 0.00 0.00 0.00 39 1013.0
20260506121504 63 60 3.0 0.0 0.00 0.00 0.00 39 1013.0
20260506120005 61 260 6.0 0.0 0.00 0.00 0.00 44 1013.0
20260506113004 59 10 6.0 0.0 0.00 0.00 0.00 44 1013.0
20260506104504 61 20 5.0 0.0 0.00 0.00 0.00 44 1014.0
20260506103004 59 20 3.0 0.0 0.00 0.00 0.00 47 1014.0
20260506100004 57 60 3.0 0.0 0.00 0.00 0.00 50 1014.0
20260506094504 57 60 3.0 0.0 0.00 0.00 0.00 50 1014.0
20260506093004 55 40 5.0 0.0 0.00 0.00 0.00 58 1014.0